Wetterdaten: Woche 19.02.18 - 25.02.18 (KW8)
Datum Zeit Temperatur Luftfeuchte Luftdruck Niederschlag Windrichtung Sonnenschein Solar Wind
19.02.2018 00:00 -1,3 C 94 % 1021,3 hPa 0,0 l/m O 0,00 h 0 W/m 4,4 km/h (1 Bft)
19.02.2018 01:00 -1,4 C 94 % 1021,0 hPa 0,0 l/m O 0,00 h 0 W/m 8,5 km/h (2 Bft)
19.02.2018 02:00 -1,6 C 93 % 1020,8 hPa 0,0 l/m O 0,00 h 0 W/m 5,9 km/h (2 Bft)
19.02.2018 03:00 -1,7 C 94 % 1020,6 hPa 0,0 l/m O 0,00 h 0 W/m 3,9 km/h (1 Bft)
19.02.2018 04:00 -1,8 C 94 % 1020,1 hPa 0,0 l/m O 0,00 h 0 W/m 2,3 km/h (1 Bft)
19.02.2018 05:00 -1,8 C 94 % 1019,7 hPa 0,0 l/m O 0,00 h 0 W/m 0,4 km/h (0 Bft)
19.02.2018 06:00 -1,9 C 94 % 1019,4 hPa 0,0 l/m N 0,00 h 0 W/m 0,7 km/h (0 Bft)
19.02.2018 07:00 -2,1 C 94 % 1019,5 hPa 0,0 l/m N 0,00 h 11 W/m 1,5 km/h (1 Bft)
19.02.2018 08:00 -2,0 C 95 % 1019,4 hPa 0,0 l/m N 0,00 h 43 W/m 2,0 km/h (1 Bft)
19.02.2018 09:00 -1,7 C 95 % 1019,1 hPa 0,0 l/m O 0,00 h 94 W/m 2,5 km/h (1 Bft)
19.02.2018 10:00 -1,4 C 95 % 1019,0 hPa 0,0 l/m N 0,00 h 110 W/m 2,5 km/h (1 Bft)
19.02.2018 11:00 -1,0 C 95 % 1018,6 hPa 0,0 l/m O 0,00 h 155 W/m 1,6 km/h (1 Bft)
19.02.2018 12:00 -0,5 C 94 % 1018,2 hPa 0,0 l/m O 0,00 h 203 W/m 4,7 km/h (1 Bft)
19.02.2018 13:00 -0,2 C 92 % 1017,6 hPa 0,0 l/m O 0,00 h 200 W/m 3,6 km/h (1 Bft)
19.02.2018 14:00 -0,1 C 91 % 1017,2 hPa 0,0 l/m N 0,00 h 142 W/m 1,3 km/h (1 Bft)
19.02.2018 15:00 -0,2 C 90 % 1016,7 hPa 0,0 l/m N 0,00 h 73 W/m 0,0 km/h (0 Bft)
19.02.2018 16:00 -0,5 C 90 % 1016,4 hPa 0,0 l/m N 0,00 h 36 W/m 0,3 km/h (0 Bft)
19.02.2018 17:00 -0,8 C 91 % 1016,2 hPa 0,0 l/m O 0,00 h 12 W/m 2,3 km/h (1 Bft)
19.02.2018 18:00 -1,2 C 92 % 1016,3 hPa 0,0 l/m N 0,00 h 0 W/m 0,3 km/h (0 Bft)
19.02.2018 19:00 -1,4 C 93 % 1015,9 hPa 0,0 l/m N 0,00 h 0 W/m 0,0 km/h (0 Bft)
19.02.2018 20:00 -1,5 C 93 % 1015,9 hPa 0,0 l/m N 0,00 h 0 W/m 0,0 km/h (0 Bft)
19.02.2018 21:00 -1,6 C 94 % 1015,5 hPa 0,0 l/m N 0,00 h 0 W/m 0,9 km/h (0 Bft)
19.02.2018 22:00 -1,7 C 94 % 1015,1 hPa 0,0 l/m N 0,00 h 0 W/m 0,9 km/h (0 Bft)
19.02.2018 23:00 -1,9 C 95 % 1015,0 hPa 0,0 l/m N 0,00 h 0 W/m 0,7 km/h (0 Bft)
20.02.2018 00:00 -2,1 C 95 % 1014,7 hPa 0,0 l/m N 0,00 h 0 W/m 1,1 km/h (0 Bft)
20.02.2018 01:00 -2,1 C 95 % 1014,2 hPa 0,0 l/m O 0,00 h 0 W/m 0,5 km/h (0 Bft)
20.02.2018 02:00 -2,3 C 95 % 1014,1 hPa 0,0 l/m N 0,00 h 0 W/m 0,0 km/h (0 Bft)
20.02.2018 03:00 -2,4 C 96 % 1014,0 hPa 0,0 l/m N 0,00 h 0 W/m 0,1 km/h (0 Bft)
20.02.2018 04:00 -2,5 C 96 % 1014,1 hPa 0,0 l/m O 0,00 h 0 W/m 0,8 km/h (0 Bft)
20.02.2018 05:00 -2,6 C 96 % 1014,1 hPa 0,0 l/m O 0,00 h 0 W/m 2,5 km/h (1 Bft)
20.02.2018 06:00 -2,7 C 96 % 1014,1 hPa 0,0 l/m O 0,00 h 0 W/m 0,5 km/h (0 Bft)
20.02.2018 07:00 -2,8 C 96 % 1014,2 hPa 0,0 l/m O 0,00 h 9 W/m 3,5 km/h (1 Bft)
20.02.2018 08:00 -2,7 C 96 % 1014,4 hPa 0,0 l/m O 0,00 h 26 W/m 4,3 km/h (1 Bft)
20.02.2018 09:00 -2,6 C 96 % 1014,6 hPa 0,0 l/m O-NO 0,00 h 86 W/m 6,0 km/h (2 Bft)
20.02.2018 10:00 -2,2 C 96 % 1014,6 hPa 0,0 l/m O-NO 0,00 h 178 W/m 6,3 km/h (2 Bft)
20.02.2018 11:00 -1,6 C 93 % 1014,5 hPa 0,0 l/m O-NO 0,00 h 235 W/m 6,5 km/h (2 Bft)
20.02.2018 12:00 -1,3 C 88 % 1014,3 hPa 0,0 l/m O-NO 0,00 h 247 W/m 6,6 km/h (2 Bft)
20.02.2018 13:00 -0,9 C 87 % 1014,0 hPa 0,0 l/m O-NO 0,00 h 232 W/m 7,6 km/h (2 Bft)
20.02.2018 14:00 -1,0 C 87 % 1014,0 hPa 0,0 l/m NO 0,00 h 147 W/m 5,9 km/h (2 Bft)
20.02.2018 15:00 -1,2 C 87 % 1014,3 hPa 0,0 l/m NO 0,00 h 87 W/m 5,4 km/h (1 Bft)
20.02.2018 16:00 -1,6 C 87 % 1014,5 hPa 0,0 l/m NO 0,00 h 43 W/m 4,1 km/h (1 Bft)
20.02.2018 17:00 -1,9 C 87 % 1014,9 hPa 0,0 l/m N 0,00 h 13 W/m 2,0 km/h (1 Bft)
20.02.2018 18:00 -2,3 C 89 % 1015,0 hPa 0,0 l/m N 0,00 h 0 W/m 0,9 km/h (0 Bft)
20.02.2018 19:00 -2,5 C 90 % 1015,4 hPa 0,0 l/m N 0,00 h 0 W/m 0,7 km/h (0 Bft)
20.02.2018 20:00 -2,6 C 91 % 1015,9 hPa 0,0 l/m NO 0,00 h 0 W/m 3,9 km/h (1 Bft)
20.02.2018 21:00 -2,7 C 92 % 1016,2 hPa 0,0 l/m NO 0,00 h 0 W/m 4,4 km/h (1 Bft)
20.02.2018 22:00 -2,9 C 92 % 1016,2 hPa 0,0 l/m N 0,00 h 0 W/m 1,5 km/h (1 Bft)
20.02.2018 23:00 -3,0 C 93 % 1016,0 hPa 0,0 l/m N 0,00 h 0 W/m 2,5 km/h (1 Bft)
21.02.2018 00:00 -3,5 C 94 % 1016,2 hPa 0,0 l/m NO 0,00 h 0 W/m 4,0 km/h (1 Bft)
21.02.2018 01:00 -3,9 C 94 % 1016,6 hPa 0,0 l/m O-NO 0,00 h 0 W/m 10,9 km/h (2 Bft)
21.02.2018 02:00 -4,2 C 94 % 1016,8 hPa 0,0 l/m O-NO 0,00 h 0 W/m 4,4 km/h (1 Bft)
21.02.2018 03:00 -4,1 C 95 % 1016,8 hPa 0,0 l/m O-NO 0,00 h 0 W/m 4,7 km/h (1 Bft)
21.02.2018 04:00 -3,7 C 95 % 1017,1 hPa 0,0 l/m O-NO 0,00 h 0 W/m 12,2 km/h (2 Bft)
21.02.2018 05:00 -3,3 C 96 % 1017,3 hPa 0,0 l/m NO 0,00 h 0 W/m 13,0 km/h (3 Bft)
21.02.2018 06:00 -3,2 C 96 % 1017,5 hPa 0,0 l/m NO 0,00 h 0 W/m 12,5 km/h (3 Bft)
21.02.2018 07:00 -3,1 C 96 % 1017,5 hPa 0,0 l/m NO 0,00 h 7 W/m 12,4 km/h (3 Bft)
21.02.2018 08:00 -2,8 C 96 % 1017,5 hPa 0,0 l/m O-NO 0,00 h 46 W/m 17,4 km/h (3 Bft)
21.02.2018 09:00 -2,6 C 96 % 1017,8 hPa 0,0 l/m O-NO 0,00 h 102 W/m 19,4 km/h (3 Bft)
21.02.2018 10:00 -2,4 C 95 % 1018,0 hPa 0,0 l/m O-NO 0,00 h 151 W/m 17,4 km/h (3 Bft)
21.02.2018 11:00 -2,0 C 93 % 1017,9 hPa 0,0 l/m O-NO 0,00 h 196 W/m 17,0 km/h (3 Bft)
21.02.2018 12:00 -2,0 C 92 % 1017,8 hPa 0,0 l/m NO 0,00 h 183 W/m 17,6 km/h (3 Bft)
21.02.2018 13:00 -2,1 C 91 % 1017,5 hPa 0,0 l/m O-NO 0,00 h 199 W/m 16,6 km/h (3 Bft)
21.02.2018 14:00 -2,0 C 91 % 1017,2 hPa 0,0 l/m NO 0,00 h 142 W/m 16,2 km/h (3 Bft)
21.02.2018 15:00 -2,1 C 91 % 1017,1 hPa 0,0 l/m O-NO 0,00 h 101 W/m 15,4 km/h (3 Bft)
21.02.2018 16:00 -2,1 C 90 % 1017,3 hPa 0,0 l/m O-NO 0,00 h 73 W/m 19,0 km/h (3 Bft)
21.02.2018 17:00 -2,2 C 89 % 1017,2 hPa 0,0 l/m NO 0,00 h 23 W/m 7,2 km/h (2 Bft)
21.02.2018 18:00 -3,1 C 89 % 1017,5 hPa 0,0 l/m N 0,00 h 0 W/m 0,7 km/h (0 Bft)
21.02.2018 19:00 -4,1 C 90 % 1017,4 hPa 0,0 l/m N 0,00 h 0 W/m 2,5 km/h (1 Bft)
21.02.2018 20:00 -4,4 C 92 % 1017,3 hPa 0,0 l/m O-NO 0,00 h 0 W/m 5,0 km/h (1 Bft)
21.02.2018 21:00 -4,3 C 93 % 1016,9 hPa 0,0 l/m NO 0,00 h 0 W/m 10,1 km/h (2 Bft)
21.02.2018 22:00 -4,2 C 93 % 1016,6 hPa 0,0 l/m NO 0,00 h 0 W/m 14,4 km/h (3 Bft)
21.02.2018 23:00 -4,4 C 92 % 1016,3 hPa 0,0 l/m NO 0,00 h 0 W/m 19,3 km/h (3 Bft)
22.02.2018 00:00 -4,7 C 91 % 1016,1 hPa 0,0 l/m O-NO 0,00 h 0 W/m 19,0 km/h (3 Bft)
22.02.2018 01:00 -5,2 C 91 % 1015,7 hPa 0,0 l/m NO 0,00 h 0 W/m 14,4 km/h (3 Bft)
22.02.2018 02:00 -5,2 C 92 % 1015,2 hPa 0,0 l/m NO 0,00 h 0 W/m 18,9 km/h (3 Bft)
22.02.2018 03:00 -5,5 C 91 % 1014,8 hPa 0,0 l/m NO 0,00 h 0 W/m 17,7 km/h (3 Bft)
22.02.2018 04:00 -6,0 C 91 % 1014,4 hPa 0,0 l/m NO 0,00 h 0 W/m 18,0 km/h (3 Bft)
22.02.2018 05:00 -6,2 C 92 % 1014,3 hPa 0,0 l/m NO 0,00 h 0 W/m 18,2 km/h (3 Bft)
22.02.2018 06:00 -5,9 C 92 % 1014,3 hPa 0,0 l/m NO 0,00 h 0 W/m 19,7 km/h (3 Bft)
22.02.2018 07:00 -5,3 C 92 % 1014,3 hPa 0,0 l/m NO 0,00 h 10 W/m 21,6 km/h (4 Bft)
22.02.2018 08:00 -5,1 C 92 % 1014,3 hPa 0,0 l/m O-NO 0,00 h 32 W/m 22,3 km/h (4 Bft)
22.02.2018 09:00 -4,7 C 92 % 1014,2 hPa 0,0 l/m O-NO 0,00 h 64 W/m 22,9 km/h (4 Bft)
22.02.2018 10:00 -4,5 C 92 % 1014,1 hPa 0,0 l/m NO 0,00 h 113 W/m 22,5 km/h (4 Bft)
22.02.2018 11:00 -4,2 C 91 % 1014,1 hPa 0,0 l/m O-NO 0,00 h 96 W/m 26,3 km/h (4 Bft)
22.02.2018 12:00 -3,7 C 90 % 1014,0 hPa 0,0 l/m O-NO 0,00 h 160 W/m 24,9 km/h (4 Bft)
22.02.2018 13:00 -3,2 C 88 % 1013,8 hPa 0,0 l/m O-NO 0,00 h 143 W/m 26,6 km/h (4 Bft)
22.02.2018 14:00 -3,1 C 87 % 1013,6 hPa 0,0 l/m O-NO 0,00 h 114 W/m 23,0 km/h (4 Bft)
22.02.2018 15:00 -2,8 C 88 % 1013,6 hPa 0,0 l/m NO 0,00 h 101 W/m 22,8 km/h (4 Bft)
22.02.2018 16:00 -2,7 C 88 % 1013,8 hPa 0,0 l/m O-NO 0,00 h 53 W/m 22,0 km/h (4 Bft)
22.02.2018 17:00 -2,8 C 89 % 1014,2 hPa 0,0 l/m O-NO 0,00 h 16 W/m 19,8 km/h (4 Bft)
22.02.2018 18:00 -2,9 C 90 % 1014,6 hPa 0,0 l/m O 0,00 h 0 W/m 15,7 km/h (3 Bft)
22.02.2018 19:00 -3,0 C 90 % 1014,7 hPa 0,0 l/m O-NO 0,00 h 0 W/m 18,8 km/h (3 Bft)
22.02.2018 20:00 -3,1 C 89 % 1014,7 hPa 0,0 l/m O-NO 0,00 h 0 W/m 19,7 km/h (3 Bft)
22.02.2018 21:00 -3,2 C 87 % 1014,4 hPa 0,0 l/m O 0,00 h 0 W/m 19,4 km/h (3 Bft)
22.02.2018 22:00 -3,2 C 88 % 1014,5 hPa 0,0 l/m O 0,00 h 0 W/m 21,2 km/h (4 Bft)
22.02.2018 23:00 -3,2 C 89 % 1014,5 hPa 0,0 l/m O 0,00 h 0 W/m 19,3 km/h (3 Bft)
23.02.2018 00:00 -3,3 C 89 % 1014,3 hPa 0,0 l/m O-NO 0,00 h 0 W/m 20,5 km/h (4 Bft)
23.02.2018 01:00 -3,3 C 89 % 1014,3 hPa 0,0 l/m O-NO 0,00 h 0 W/m 24,0 km/h (4 Bft)
23.02.2018 02:00 -3,4 C 89 % 1014,2 hPa 0,0 l/m O 0,00 h 0 W/m 19,2 km/h (3 Bft)
23.02.2018 03:00 -3,6 C 89 % 1013,8 hPa 0,0 l/m O 0,00 h 0 W/m 21,8 km/h (4 Bft)
23.02.2018 04:00 -3,8 C 88 % 1013,5 hPa 0,0 l/m O 0,00 h 0 W/m 24,8 km/h (4 Bft)
23.02.2018 05:00 -3,9 C 88 % 1013,5 hPa 0,0 l/m NO 0,00 h 0 W/m 20,5 km/h (4 Bft)
23.02.2018 06:00 -4,2 C 89 % 1013,5 hPa 0,0 l/m O-NO 0,00 h 0 W/m 23,7 km/h (4 Bft)
23.02.2018 07:00 -4,3 C 90 % 1013,5 hPa 0,0 l/m O-NO 0,00 h 8 W/m 19,8 km/h (4 Bft)
23.02.2018 08:00 -4,3 C 91 % 1013,7 hPa 0,0 l/m NO 0,00 h 27 W/m 19,0 km/h (3 Bft)
23.02.2018 09:00 -4,3 C 91 % 1014,0 hPa 0,0 l/m NO 0,00 h 56 W/m 21,7 km/h (4 Bft)
23.02.2018 10:00 -4,1 C 90 % 1014,3 hPa 0,0 l/m O-NO 0,00 h 89 W/m 24,4 km/h (4 Bft)
23.02.2018 11:00 -3,9 C 89 % 1014,4 hPa 0,0 l/m O-NO 0,00 h 141 W/m 24,5 km/h (4 Bft)
23.02.2018 12:00 -3,7 C 88 % 1014,1 hPa 0,0 l/m O-NO 0,00 h 147 W/m 24,3 km/h (4 Bft)
23.02.2018 13:00 -3,7 C 87 % 1014,2 hPa 0,0 l/m O 0,00 h 122 W/m 26,4 km/h (4 Bft)
23.02.2018 14:00 -3,7 C 88 % 1014,3 hPa 0,0 l/m O-NO 0,00 h 69 W/m 23,4 km/h (4 Bft)
23.02.2018 15:00 -3,6 C 89 % 1014,2 hPa 0,0 l/m O-NO 0,00 h 51 W/m 21,7 km/h (4 Bft)
23.02.2018 16:00 -3,5 C 89 % 1014,2 hPa 0,0 l/m NO 0,00 h 30 W/m 23,2 km/h (4 Bft)
23.02.2018 17:00 -3,4 C 89 % 1014,4 hPa 0,0 l/m O 0,00 h 11 W/m 23,2 km/h (4 Bft)
23.02.2018 18:00 -3,3 C 89 % 1014,6 hPa 0,0 l/m O 0,00 h 0 W/m 24,0 km/h (4 Bft)
23.02.2018 19:00 -3,1 C 89 % 1014,6 hPa 0,0 l/m O 0,00 h 0 W/m 21,7 km/h (4 Bft)
23.02.2018 20:00 -2,7 C 89 % 1014,6 hPa 0,0 l/m O 0,00 h 0 W/m 24,3 km/h (4 Bft)
23.02.2018 21:00 -2,5 C 89 % 1014,7 hPa 0,0 l/m O 0,00 h 0 W/m 20,5 km/h (4 Bft)
23.02.2018 22:00 -2,4 C 89 % 1014,5 hPa 0,0 l/m O-NO 0,00 h 0 W/m 18,0 km/h (3 Bft)
23.02.2018 23:00 -2,5 C 89 % 1014,3 hPa 0,0 l/m O-NO 0,00 h 0 W/m 18,4 km/h (3 Bft)
24.02.2018 00:00 -2,5 C 89 % 1014,6 hPa 0,0 l/m O 0,00 h 0 W/m 23,6 km/h (4 Bft)
24.02.2018 01:00 -2,6 C 89 % 1014,7 hPa 0,0 l/m O 0,00 h 0 W/m 22,8 km/h (4 Bft)
24.02.2018 02:00 -2,8 C 88 % 1014,6 hPa 0,0 l/m O 0,00 h 0 W/m 26,6 km/h (4 Bft)
24.02.2018 03:00 -2,8 C 89 % 1014,5 hPa 0,0 l/m O 0,00 h 0 W/m 23,2 km/h (4 Bft)
24.02.2018 04:00 -3,0 C 89 % 1014,6 hPa 0,0 l/m O 0,00 h 0 W/m 23,0 km/h (4 Bft)
24.02.2018 05:00 -3,2 C 90 % 1014,7 hPa 0,0 l/m O 0,00 h 0 W/m 22,9 km/h (4 Bft)
24.02.2018 06:00 -3,4 C 91 % 1014,8 hPa 0,0 l/m O-NO 0,00 h 0 W/m 22,6 km/h (4 Bft)
24.02.2018 07:00 -3,7 C 91 % 1015,1 hPa 0,0 l/m O-NO 0,00 h 12 W/m 27,1 km/h (4 Bft)
24.02.2018 08:00 -4,0 C 91 % 1015,5 hPa 0,0 l/m O-NO 0,00 h 38 W/m 31,5 km/h (5 Bft)
24.02.2018 09:00 -4,0 C 91 % 1015,7 hPa 0,0 l/m O 0,00 h 81 W/m 30,2 km/h (5 Bft)
24.02.2018 10:00 -4,0 C 91 % 1016,0 hPa 0,0 l/m O-NO 0,00 h 133 W/m 22,1 km/h (4 Bft)
24.02.2018 11:00 -3,6 C 88 % 1016,4 hPa 0,0 l/m O-NO 0,08 h 248 W/m 29,9 km/h (5 Bft)
24.02.2018 12:00 -2,1 C 77 % 1016,0 hPa 0,0 l/m O 1,00 h 519 W/m 32,6 km/h (5 Bft)
24.02.2018 13:00 -1,0 C 64 % 1015,6 hPa 0,0 l/m O-NO 1,00 h 497 W/m 33,9 km/h (5 Bft)
24.02.2018 14:00 -0,8 C 60 % 1015,4 hPa 0,0 l/m O 1,00 h 416 W/m 33,9 km/h (5 Bft)
24.02.2018 15:00 -0,7 C 57 % 1015,5 hPa 0,0 l/m O-NO 1,00 h 289 W/m 33,5 km/h (5 Bft)
24.02.2018 16:00 -0,8 C 59 % 1015,8 hPa 0,0 l/m O-NO 0,42 h 116 W/m 27,2 km/h (4 Bft)
24.02.2018 17:00 -1,5 C 63 % 1016,4 hPa 0,0 l/m NO 0,08 h 21 W/m 26,2 km/h (4 Bft)
24.02.2018 18:00 -2,5 C 70 % 1016,9 hPa 0,0 l/m O-NO 0,00 h 0 W/m 21,7 km/h (4 Bft)
24.02.2018 19:00 -3,1 C 75 % 1017,4 hPa 0,0 l/m NO 0,00 h 0 W/m 22,6 km/h (4 Bft)
24.02.2018 20:00 -3,9 C 76 % 1017,8 hPa 0,0 l/m O-NO 0,00 h 0 W/m 23,7 km/h (4 Bft)
24.02.2018 21:00 -4,4 C 76 % 1018,0 hPa 0,0 l/m NO 0,00 h 0 W/m 23,9 km/h (4 Bft)
24.02.2018 22:00 -4,8 C 74 % 1018,4 hPa 0,0 l/m O-NO 0,00 h 0 W/m 28,7 km/h (4 Bft)
24.02.2018 23:00 -5,2 C 73 % 1018,5 hPa 0,0 l/m O 0,00 h 0 W/m 29,0 km/h (5 Bft)
25.02.2018 00:00 -6,0 C 76 % 1018,8 hPa 0,0 l/m O-NO 0,00 h 0 W/m 19,3 km/h (3 Bft)
25.02.2018 01:00 -6,8 C 78 % 1019,0 hPa 0,0 l/m O-NO 0,00 h 0 W/m 22,8 km/h (4 Bft)
25.02.2018 02:00 -7,3 C 77 % 1019,0 hPa 0,0 l/m O-NO 0,00 h 0 W/m 26,0 km/h (4 Bft)
25.02.2018 03:00 -8,1 C 76 % 1019,3 hPa 0,0 l/m O 0,00 h 0 W/m 28,6 km/h (4 Bft)
25.02.2018 04:00 -8,8 C 77 % 1019,5 hPa 0,0 l/m O-NO 0,00 h 0 W/m 26,4 km/h (4 Bft)
25.02.2018 05:00 -9,3 C 78 % 1020,0 hPa 0,0 l/m O-NO 0,00 h 0 W/m 28,3 km/h (4 Bft)
25.02.2018 06:00 -9,6 C 80 % 1020,2 hPa 0,0 l/m O-NO 0,00 h 0 W/m 25,6 km/h (4 Bft)
25.02.2018 07:00 -9,8 C 80 % 1020,6 hPa 0,0 l/m O-NO 0,00 h 15 W/m 25,9 km/h (4 Bft)
25.02.2018 08:00 -9,9 C 80 % 1020,8 hPa 0,0 l/m O-NO 0,42 h 115 W/m 29,0 km/h (5 Bft)
25.02.2018 09:00 -9,7 C 79 % 1021,3 hPa 0,0 l/m O-NO 0,25 h 164 W/m 23,5 km/h (4 Bft)
25.02.2018 10:00 -8,7 C 76 % 1021,6 hPa 0,0 l/m NO 0,83 h 377 W/m 20,5 km/h (4 Bft)
25.02.2018 11:00 -6,9 C 68 % 1021,5 hPa 0,0 l/m NO 1,00 h 503 W/m 21,9 km/h (4 Bft)
25.02.2018 12:00 -5,7 C 62 % 1021,1 hPa 0,0 l/m NO 1,00 h 544 W/m 24,4 km/h (4 Bft)
25.02.2018 13:00 -4,9 C 57 % 1020,6 hPa 0,0 l/m O 1,00 h 506 W/m 25,1 km/h (4 Bft)
25.02.2018 14:00 -4,6 C 55 % 1020,4 hPa 0,0 l/m O 1,00 h 425 W/m 24,1 km/h (4 Bft)
25.02.2018 15:00 -4,4 C 56 % 1020,4 hPa 0,0 l/m NO 1,00 h 297 W/m 20,5 km/h (4 Bft)
25.02.2018 16:00 -5,0 C 57 % 1020,6 hPa 0,0 l/m O-NO 0,50 h 121 W/m 21,6 km/h (4 Bft)
25.02.2018 17:00 -5,9 C 61 % 1020,9 hPa 0,0 l/m O-NO 0,00 h 23 W/m 18,6 km/h (3 Bft)
25.02.2018 18:00 -6,9 C 64 % 1021,3 hPa 0,0 l/m O-NO 0,00 h 5 W/m 13,8 km/h (3 Bft)
25.02.2018 19:00 -7,6 C 66 % 1021,7 hPa 0,0 l/m O-NO 0,00 h 0 W/m 11,3 km/h (2 Bft)
25.02.2018 20:00 -8,2 C 68 % 1021,8 hPa 0,0 l/m O-NO 0,00 h 0 W/m 10,6 km/h (2 Bft)
25.02.2018 21:00 -8,7 C 70 % 1021,6 hPa 0,0 l/m NO 0,00 h 0 W/m 12,9 km/h (3 Bft)
25.02.2018 22:00 -9,1 C 70 % 1021,4 hPa 0,0 l/m O-NO 0,00 h 0 W/m 13,4 km/h (3 Bft)
25.02.2018 23:00 -9,7 C 71 % 1021,3 hPa 0,0 l/m O-NO 0,00 h 0 W/m 14,1 km/h (3 Bft)
Min-Datum _ 25.02.18 25.02.18 23.02.18 - - - - 19.02.18
_ Min-Zeit 07:45 14:45 04:35 - - - - 00:00
Minimum _ -9,9 C 54 % 1013,4 hPa - - - - 0,0 km/h (0 Bft)
Max-Datum _ 19.02.18 21.02.18 25.02.18 19.02.18 - 24.02.18 25.02.18 24.02.18
_ Max-Zeit 13:55 00:50 19:55 00:00 - 11:55 12:10 08:20
Maximum _ 0,1 C 100 % 1021,9 hPa 0,0 l/m - 0,08 h 548 W/m 41,8 km/h
O-NO (6 Bft)
Durchschnitt _ -3,5 C 87 % 1016,4 hPa #0,0 l/m O-NO #11:35 h 137 W/m 15,5 km/h (3 Bft)